89P/Russell 2 (2009)

Japanese version
Home page
Updated on November 1, 2009

---------------------------------------------------------------------

* Profile

* Pictures

* Orbital Elements

The following orbital elements are taken from MPC 56804:

Epoch 2009 Sept. 6.0 TT = JDT 2455080.5
T 2009 Aug. 17.1630 TT                                  MPC
q   2.279933             (2000.0)            P               Q
n   0.1332243      Peri.  249.3242      +0.3560403      +0.9238454
a   3.796764       Node    42.3849      -0.7609050      +0.3739037
e   0.399506       Incl.   12.0315      -0.5424563      +0.0818886
P   7.40
From 93 observations 1980-2002, mean residual 0".8.

* Finding Charts

* Magnitudes Graph

        m1 = 10.0 + 5 log d + 15.0 log r

---------------------------------------------------------------------

The orbital elements are published at the MPC Ephemerides and Orbital Elements.
The charts are made with StellaNavigator Ver.8 (AstroArts).
The magnitudes graphs are made with Comet for Windows.

---------------------------------------------------------------------

Copyright(C) Seiichi Yoshida (comet@aerith.net). All rights reserved.